Location: ????????
(55.6333°N, 37.7000°E)
Time: 00:24:31
(UTC+00:00)

Resurs 1-4 Rocket - Pass Details

Date: 20 May 2026
Orbit: 797 x 813 km, 98.8° (Epoch: 10 June)

Event Time Altitude Azimuth Distance (km) Brightness Sun altitude
Rises 22:46:56 0° 26° (NNE) 3,326 7.3 -12.3°
Reaches altitude 10° 22:50:21 10° 49° (NE) 2,387 5.6 -12.1°
Maximum altitude 22:53:21 15° 84° (E) 2,037 4.5 -12.0°
Drops below altitude 10° 22:56:20 10° 120° (ESE) 2,373 4.5 -11.8°
Sets 22:59:42 0° 143° (SE) 3,296 5.0 -11.6°
